1484820000.59,47009,5.69,74012.3,-4.11,-41.67,-42.13,0,*5E
1484820001.85,47010,5.69,74018.3,-4.11,-41.29,-41.81,0,*54
1484820003.14,47011,5.69,74014.3,-4.11,-41.81,-42.31,0,*5F
1484820004.43,47012,5.69,74004.3,-4.11,-41.35,-41.81,0,*5B
1484820005.66,47013,5.63,74014.0,-4.11,-41.49,-41.99,0,*58
1484820006.92,47014,5.69,74020.8,-4.11,-41.93,-42.51,0,*5F
1484820008.19,47015,5.69,74020.5,-4.11,-41.67,-41.99,0,*52
1484820009.44,47016,5.69,74022.0,-4.09,-41.55,-41.93,0,*53
1484820010.71,47017,5.69,74022.3,-4.11,-41.73,-42.31,0,*54
1484820011.97,47018,5.63,74014.5,-4.11,-41.81,-42.37,0,*50
1484820013.23,47019,5.69,74024.0,-4.11,-41.93,-42.37,0,*52
1484820014.46,47020,5.69,74024.5,-4.09,-41.67,-42.13,0,*5C
1484820015.7,47021,5.69,74020.8,-4.09,-41.67,-42.13,0,*5D
1484820016.9,47022,5.69,74024.5,-4.09,-41.73,-42.37,0,*5D
1484820018.11,47023,5.63,74022.8,-4.09,-41.73,-41.99,0,*5B
1484820019.33,47024,5.63,74016.8,-4.05,-41.41,-41.73,0,*55
1484820020.57,47025,5.69,74020.0,-4.05,-42.25,-42.69,0,*5D
1484820021.82,47026,5.69,74026.8,-4.05,-41.73,-42.31,0,*53
1484820023.06,47027,5.63,74020.3,-4.05,-41.41,-42.05,0,*54
1484820024.3,47028,5.63,74026.3,-4.05,-41.41,-42.05,0,*5B
1484820025.54,47029,5.69,74020.0,-4.05,-41.87,-42.45,0,*54
1484820026.77,47030,5.63,74018.8,-4.03,-41.87,-42.45,0,*5A
1484820028.02,47031,5.63,74018.5,-4.05,-42.13,-42.69,0,*5D
1484820029.27,47032,5.63,74016.8,-4.03,-42.05,-42.57,0,*52
1484820030.51,47033,5.69,74022.0,-4.03,-41.93,-42.37,0,*59
1484820031.77,47034,5.63,74014.3,-4.05,-41.93,-42.45,0,*5D
1484820032.99,47035,5.63,74018.0,-4.05,-41.49,-41.87,0,*56
1484820034.23,47036,5.63,74020.3,-4.05,-41.67,-42.13,0,*57
1484820035.46,47037,5.69,74014.3,-4.03,-41.99,-42.45,0,*52
1484820036.72,47038,5.63,74006.0,-4.05,-41.93,-42.45,0,*51
1484820037.94,47039,5.63,74006.5,-4.05,-41.41,-41.87,0,*52
1484820039.16,47040,5.69,74004.0,-4.03,-41.41,-41.87,0,*5A
1484820040.37,47041,5.63,74010.8,-4.03,-41.61,-42.25,0,*52
1484820041.61,47042,5.69,74002.8,-4.05,-42.83,-43.35,0,*58
1484820042.85,47043,5.69,74006.8,-4.03,-42.63,-43.21,0,*54
1484820044.09,47044,5.63,74014.5,-4.03,-42.83,-43.41,0,*5B
1484820045.36,47045,5.63,74012.5,-4.05,-43.09,-43.67,0,*5B
1484820046.6,47046,5.63,74010.3,-4.05,-43.09,-43.75,0,*5B
1484820047.85,47047,5.63,74020.0,-4.05,-42.05,-42.63,0,*51
1484820049.1,47048,5.63,74016.0,-4.09,-41.81,-42.57,0,*5A
1484820050.36,47049,5.63,74010.0,-4.09,-41.93,-42.57,0,*58
1484820051.61,47050,5.63,74012.8,-4.05,-41.93,-42.63,0,*5B
1484820052.84,47051,5.63,74016.5,-4.09,-41.93,-42.89,0,*52
1484820054.08,47052,5.63,74020.3,-4.09,-42.31,-42.89,0,*5A
1484820055.32,47053,5.63,74026.8,-4.09,-42.37,-42.95,0,*50
1484820056.56,47054,5.63,74022.3,-4.09,-42.51,-42.95,0,*57
1484820057.79,47055,5.63,74022.3,-4.09,-42.57,-43.01,0,*5C
1484820059.04,47056,5.63,74026.3,-4.09,-42.31,-42.75,0,*5D
1484820060.27,47057,5.63,74026.8,-4.09,-41.93,-42.51,0,*51
1484820061.51,47058,5.63,74020.0,-4.09,-41.81,-42.51,0,*5D
1484820062.75,47059,5.63,74024.3,-4.05,-42.25,-42.83,0,*52
1484820063.97,47060,5.63,74030.5,-4.05,-41.87,-42.13,0,*5A
1484820065.21,47061,5.63,74024.0,-4.09,-41.73,-42.19,0,*56
1484820066.44,47062,5.63,74030.3,-4.09,-41.55,-41.99,0,*5A
1484820067.68,47063,5.63,74024.5,-4.05,-42.05,-42.51,0,*56
1484820068.9,47064,5.63,74026.5,-4.05,-42.25,-42.89,0,*56
1484820070.14,47065,5.63,74026.5,-4.03,-42.75,-43.29,0,*5F
1484820071.35,47066,5.63,74026.3,-4.09,-42.75,-43.35,0,*5B
1484820072.59,47067,5.63,74026.3,-4.09,-42.19,-42.89,0,*56
1484820073.8,47068,5.63,74024.3,-4.09,-41.99,-42.51,0,*57
1484820075.04,47069,5.63,74018.8,-4.09,-42.13,-42.69,0,*5C
1484820076.31,47070,5.63,74020.0,-4.09,-41.67,-42.19,0,*53
1484820077.55,47071,5.63,74020.3,-4.09,-41.73,-42.31,0,*5D
1484820078.77,47072,5.63,74018.8,-4.09,-41.49,-41.93,0,*5C
1484820080.04,47073,5.63,74006.8,-4.09,-40.97,-41.55,0,*55
1484820081.28,47074,5.63,74012.0,-4.05,-41.87,-42.45,0,*5C
1484820082.49,47075,5.63,74010.5,-4.03,-41.41,-41.99,0,*53
1484820083.72,47076,5.63,74002.8,-4.03,-41.41,-42.05,0,*56
1484820084.93,47077,5.63,74004.5,-4.03,-41.73,-42.13,0,*51
1484820086.17,47078,5.63,74004.5,-4.05,-41.29,-41.67,0,*57
1484820087.4,47079,5.63,74014.8,-4.03,-41.99,-42.57,0,*5B
1484820088.67,47080,5.63,74016.5,-4.03,-41.67,-42.19,0,*56
1484820089.88,47081,5.63,74012.0,-4.03,-41.29,-41.87,0,*59
1484820091.09,47082,5.63,74016.0,-4.03,-42.63,-42.89,0,*5A
1484820092.33,47083,5.63,74010.5,-4.03,-42.19,-42.63,0,*52
1484820093.57,47084,5.63,74018.5,-4.03,-42.63,-43.21,0,*5F
1484820094.8,47085,5.63,74018.0,-4.03,-41.41,-41.81,0,*55
1484820096.06,47086,5.63,74020.5,-4.03,-41.55,-42.05,0,*5C
1484820097.27,47087,5.63,74022.0,-4.03,-41.17,-41.61,0,*5A
1484820098.51,47088,5.63,74014.3,-4.03,-40.41,-41.03,0,*53
1484820099.75,47089,5.63,74012.3,-3.99,-41.55,-42.13,0,*50
1484820101.01,47090,5.63,74018.8,-4.01,-41.55,-41.99,0,*5F
1484820102.28,47091,5.63,74020.0,-4.01,-40.97,-41.41,0,*54
1484820103.54,47092,5.63,74018.0,-4.01,-40.97,-41.41,0,*57
1484820104.78,47093,5.63,74028.0,-4.01,-41.41,-41.99,0,*59
1484820106.05,47094,5.63,74024.8,-3.99,-41.55,-42.19,0,*56
1484820107.26,47095,5.63,74020.0,-3.99,-41.29,-41.73,0,*53
1484820108.47,47096,5.63,74022.8,-3.99,-41.49,-42.13,0,*53
1484820109.71,47097,5.63,74020.5,-3.99,-41.73,-42.19,0,*51
1484820110.97,47098,5.63,74022.5,-3.97,-41.49,-41.93,0,*58
1484820112.23,47099,5.63,74018.8,-3.97,-41.93,-42.37,0,*53
1484820113.52,47100,5.63,74024.3,-3.97,-41.55,-41.93,0,*55
1484820114.76,47101,5.63,74014.0,-3.97,-41.29,-41.73,0,*51
1484820116.03,47102,5.63,74018.8,-3.97,-41.61,-42.31,0,*5B
1484820117.3,47103,5.63,74016.8,-3.97,-41.61,-42.31,0,*5A
1484820118.59,47104,5.63,74020.0,-3.97,-41.35,-41.81,0,*54
1484820119.86,47105,5.63,74008.0,-3.97,-41.11,-41.81,0,*53
1484820121.09,47106,5.63,74012.0,-3.97,-41.11,-41.73,0,*5D
1484820122.32,47107,5.63,74018.5,-3.95,-41.49,-41.93,0,*5D
1484820123.56,47108,5.63,74014.0,-3.95,-41.23,-41.73,0,*50
1484820124.8,47109,5.63,74006.5,-3.97,-41.49,-41.99,0,*5B
1484820126.04,47110,5.63,74004.5,-3.95,-41.55,-42.13,0,*5D
1484820127.25,47111,5.63,74006.3,-3.95,-41.73,-42.25,0,*5D
1484820128.51,47112,5.63,74004.5,-3.97,-41.93,-42.51,0,*51
1484820129.78,47113,5.63,74014.0,-3.95,-42.69,-43.09,0,*58
1484820131.02,47114,5.63,74022.3,-3.97,-41.61,-42.13,0,*5C
1484820132.22,47115,5.63,74010.3,-3.95,-41.49,-42.13,0,*55
1484820133.43,47116,5.63,74008.5,-3.95,-41.73,-42.51,0,*59
1484820134.67,47117,5.63,74012.8,-3.95,-41.49,-42.05,0,*50
1484820135.88,47118,5.63,74010.5,-3.95,-40.91,-41.49,0,*50
1484820137.09,47119,5.63,74006.5,-3.95,-41.49,-41.87,0,*57
1484820138.32,47120,5.63,74010.5,-3.95,-41.49,-41.93,0,*58
1484820139.58,47121,5.63,74004.5,-3.93,-42.05,-42.63,0,*58
1484820140.82,47122,5.63,73998.3,-3.93,-41.87,-42.51,0,*53
1484820142.1,47123,5.63,74010.8,-3.93,-41.55,-42.05,0,*5C
1484820143.36,47124,5.63,74018.0,-3.93,-41.73,-42.45,0,*5B
1484820144.62,47125,5.56,74006.8,-3.93,-42.13,-42.69,0,*51
1484820145.83,47126,5.63,74008.0,-3.95,-41.49,-42.13,0,*55
1484820147.06,47127,5.63,74008.3,-3.95,-41.49,-41.93,0,*5F
1484820148.29,47128,5.63,74012.8,-3.95,-42.05,-42.63,0,*57
1484820149.51,47129,5.63,74010.0,-3.95,-41.87,-42.51,0,*5E
1484820150.75,47130,5.63,74010.5,-3.95,-41.93,-42.51,0,*53
1484820152.01,47131,5.63,74012.0,-3.95,-41.93,-42.57,0,*54
1484820153.24,47132,5.63,74004.5,-3.95,-41.73,-42.45,0,*5A
1484820154.44,47133,5.63,74004.5,-3.95,-41.73,-42.13,0,*58
1484820155.65,47134,5.56,73998.0,-3.95,-41.29,-41.73,0,*55
1484820156.86,47135,5.56,73992.3,-3.95,-40.91,-41.49,0,*5F
1484820158.12,47136,5.63,73988.3,-3.93,-42.05,-42.63,0,*5E
1484820159.38,47137,5.63,73990.3,-3.93,-41.73,-42.45,0,*59
1484820160.62,47138,5.63,73996.3,-3.95,-42.51,-43.09,0,*5A
1484820161.83,47139,5.63,74008.5,-3.95,-42.75,-43.15,0,*50
1484820163.12,47140,5.63,74016.3,-3.97,-43.21,-43.55,0,*58
1484820164.42,47141,5.63,74018.5,-3.97,-42.31,-42.83,0,*53
1484820165.65,47142,5.56,74014.0,-3.97,-41.73,-42.37,0,*5A
1484820166.94,47143,5.63,74006.0,-3.97,-42.69,-43.21,0,*55
1484820168.18,47144,5.56,74006.8,-3.95,-42.51,-42.95,0,*55
1484820169.42,47145,5.56,74012.3,-3.99,-43.35,-43.81,0,*5F
1484820170.66,47146,5.56,74006.8,-4.01,-42.89,-43.49,0,*58
1484820171.9,47147,5.63,74002.8,-3.99,-43.15,-43.55,0,*56
1484820173.16,47148,5.56,74012.5,-4.01,-41.99,-42.57,0,*5A
1484820174.39,47149,5.63,74020.3,-4.01,-43.49,-44.07,0,*57
1484820175.66,47150,5.63,74024.0,-4.01,-42.45,-42.89,0,*52
1484820176.9,47151,5.56,74018.3,-3.99,-41.67,-42.13,0,*55
1484820178.14,47152,5.56,74020.3,-3.99,-41.73,-42.31,0,*53
1484820179.43,47153,5.56,74022.5,-4.01,-41.67,-42.05,0,*56
1484820180.64,47154,5.56,74014.3,-3.99,-41.49,-41.99,0,*5D
1484820181.88,47155,5.56,74020.3,-3.99,-41.55,-42.13,0,*50
1484820183.12,47156,5.56,74016.8,-3.99,-42.31,-42.75,0,*52
1484820184.36,47157,5.56,74018.5,-3.99,-41.55,-41.99,0,*53
1484820185.6,47158,5.56,74020.0,-3.99,-41.55,-42.13,0,*5D
1484820186.81,47159,5.56,74020.3,-3.99,-41.11,-41.61,0,*5A
1484820188.05,47160,5.56,74016.0,-3.99,-41.55,-41.99,0,*57
1484820189.29,47161,5.56,74016.3,-4.01,-41.41,-41.87,0,*5A
1484820190.53,47162,5.63,74020.0,-3.97,-41.17,-41.73,0,*59
1484820191.79,47163,5.56,74014.8,-3.99,-41.93,-42.57,0,*5F
1484820193.06,47164,5.56,74012.3,-3.97,-41.99,-42.69,0,*51
1484820194.32,47165,5.56,74008.3,-3.97,-41.93,-42.37,0,*51
1484820195.56,47166,5.56,74004.5,-3.97,-41.49,-42.13,0,*53
1484820196.81,47167,5.56,74004.3,-3.97,-41.99,-42.75,0,*5F
1484820198.1,47168,5.56,74004.8,-3.97,-41.35,-41.81,0,*5E
1484820199.37,47169,5.56,74000.8,-3.97,-41.17,-41.55,0,*56
1484820200.58,47170,5.56,74004.5,-3.95,-41.03,-41.61,0,*5E
1484820201.87,47171,5.56,73998.0,-3.97,-40.79,-41.35,0,*50
1484820203.11,47172,5.56,74000.8,-3.95,-41.23,-41.73,0,*5D
1484820204.37,47173,5.56,74004.0,-3.95,-41.23,-41.55,0,*58
1484820205.59,47174,5.56,74004.0,-3.95,-40.47,-41.11,0,*5C
1484820206.83,47175,5.56,74002.3,-3.93,-40.91,-41.41,0,*55
1484820208.08,47176,5.56,74000.8,-3.91,-40.79,-41.35,0,*51
1484820209.32,47177,5.56,74000.3,-3.91,-41.67,-42.25,0,*5C
1484820210.53,47178,5.56,74006.3,-3.91,-41.41,-41.87,0,*5C
1484820211.79,47179,5.56,74002.5,-3.91,-40.79,-41.23,0,*59
1484820213.06,47180,5.56,74000.0,-3.93,-40.41,-41.03,0,*54
1484820214.29,47181,5.56,74002.8,-3.91,-41.17,-41.67,0,*57
1484820215.49,47182,5.56,74000.3,-3.87,-41.29,-41.61,0,*58
1484820216.76,47183,5.56,74002.0,-3.89,-41.87,-42.45,0,*56
1484820218.0,47184,5.56,74002.0,-3.89,-43.01,-43.61,0,*5A
1484820219.23,47185,5.56,74000.8,-3.93,-44.41,-45.13,0,*50
1484820220.47,47186,5.56,73996.5,-3.93,-44.53,-44.99,0,*53
1484820221.67,47187,5.56,74002.5,-3.95,-43.87,-44.53,0,*5C
1484820222.94,47188,5.56,74004.8,-3.97,-44.79,-45.47,0,*53
1484820224.21,47189,5.56,74002.3,-3.97,-44.21,-44.99,0,*5D
1484820225.47,47190,5.56,73998.8,-4.01,-44.13,-44.87,0,*53
1484820226.74,47191,5.56,74012.8,-4.01,-43.49,-44.01,0,*54
1484820227.97,47192,5.56,74026.5,-4.03,-42.37,-42.83,0,*51
1484820229.21,47193,5.56,74014.0,-4.03,-42.63,-43.21,0,*58
1484820230.47,47194,5.56,74010.8,-4.03,-41.67,-42.05,0,*5F
1484820231.71,47195,5.56,74012.3,-4.03,-42.25,-42.83,0,*55
1484820232.94,47196,5.56,74016.0,-4.03,-41.87,-42.45,0,*57
1484820234.21,47197,5.56,74016.0,-4.01,-41.35,-41.87,0,*50
1484820235.48,47198,5.56,74012.0,-4.01,-41.23,-41.87,0,*58
1484820236.74,47199,5.56,74012.8,-4.01,-41.55,-41.99,0,*57
1484820237.97,47200,5.56,74008.5,-3.99,-41.49,-41.93,0,*55
1484820239.22,47201,5.56,74018.0,-3.99,-41.35,-41.99,0,*55
1484820240.51,47202,5.56,74012.5,-4.01,-41.23,-41.55,0,*57
1484820241.72,47203,5.56,74016.8,-3.99,-41.73,-42.37,0,*52
1484820242.99,47204,5.56,74016.0,-3.99,-40.97,-41.55,0,*59
1484820244.23,47205,5.56,74014.0,-3.99,-42.37,-42.95,0,*5F
1484820245.5,47206,5.56,74020.5,-3.97,-41.61,-42.19,0,*56
1484820246.72,47207,5.56,74022.3,-3.95,-41.41,-41.73,0,*58
1484820248.0,47208,5.56,74018.3,-3.97,-41.35,-41.93,0,*58
1484820249.28,47209,5.56,74022.5,-3.97,-42.31,-42.75,0,*55
1484820250.52,47210,5.56,74022.0,-3.97,-41.61,-41.99,0,*5A
1484820251.76,47211,5.56,74022.3,-3.99,-41.55,-42.13,0,*53
1484820253.02,47212,5.56,74016.8,-3.97,-41.55,-41.99,0,*5F
1484820254.26,47213,5.56,74022.5,-3.97,-41.49,-41.99,0,*53
1484820255.52,47214,5.56,74020.0,-3.97,-41.29,-41.81,0,*5B
1484820256.79,47215,5.56,74016.3,-3.97,-41.55,-42.13,0,*59
1484820257.99,47216,5.56,74016.3,-3.95,-41.49,-42.25,0,*50
1484820259.27,47217,5.56,74016.5,-3.97,-41.73,-42.31,0,*5F
1484820260.53,47218,5.56,74012.8,-3.95,-41.67,-42.45,0,*54
1484820261.82,47219,5.5,74012.8,-3.97,-42.31,-42.83,0,*5D
1484820263.11,47220,5.56,74014.3,-3.97,-42.19,-42.69,0,*59
1484820264.38,47221,5.56,74012.3,-3.97,-41.61,-42.19,0,*53
1484820265.64,47222,5.56,74008.8,-3.97,-41.29,-41.81,0,*5E
1484820266.88,47223,5.56,74018.5,-3.95,-41.11,-41.55,0,*5F
1484820268.11,47224,5.56,74014.3,-3.95,-41.55,-42.25,0,*5C
1484820269.37,47225,5.5,74014.0,-3.95,-41.55,-42.05,0,*5F
1484820270.61,47226,5.56,74020.3,-3.97,-41.73,-42.51,0,*5B
1484820271.83,47227,5.56,74010.0,-3.95,-42.13,-42.89,0,*58
1484820273.06,47228,5.56,74002.5,-3.95,-41.87,-42.45,0,*59
1484820274.35,47229,5.56,74008.0,-3.97,-41.93,-42.57,0,*5C
1484820275.59,47230,5.56,74002.5,-3.95,-41.35,-41.73,0,*5F
1484820276.85,47231,5.56,74000.0,-3.95,-42.45,-43.09,0,*55
1484820278.1,47232,5.56,73996.5,-3.97,-42.51,-43.15,0,*5C
1484820279.39,47233,5.5,74000.5,-3.97,-42.19,-42.83,0,*5F
1484820280.61,47234,5.5,74010.0,-3.95,-42.13,-42.75,0,*59
1484820281.88,47235,5.56,74012.3,-3.95,-42.95,-43.67,0,*54
1484820283.14,47236,5.56,74014.8,-3.97,-43.55,-44.07,0,*59
1484820284.42,47237,5.5,74014.0,-3.99,-42.95,-43.55,0,*5B
1484820285.66,47238,5.56,74004.0,-3.99,-41.93,-42.51,0,*54
1484820286.9,47239,5.56,74014.5,-3.99,-41.61,-42.19,0,*54
1484820288.11,47240,5.56,74008.0,-3.99,-41.73,-42.37,0,*55
1484820289.33,47241,5.56,74012.5,-3.99,-41.73,-42.51,0,*54
1484820290.57,47242,5.56,74012.0,-3.99,-42.37,-42.95,0,*5C
1484820291.84,47243,5.56,74024.3,-3.99,-41.55,-42.19,0,*5E
1484820293.05,47244,5.56,74012.3,-3.99,-42.51,-43.01,0,*56
1484820294.27,47245,5.56,74018.3,-3.99,-43.95,-44.61,0,*5F
1484820295.53,47246,5.5,74016.3,-4.01,-42.75,-43.21,0,*56
1484820296.79,47247,5.5,74006.3,-4.01,-41.87,-42.45,0,*5A
1484820298.05,47248,5.5,74012.0,-4.01,-41.99,-42.45,0,*5A
1484820299.26,47249,5.56,74020.0,-3.99,-41.73,-42.37,0,*5C
1484820300.53,47250,5.5,74014.8,-4.01,-41.35,-41.87,0,*58
1484820301.79,47251,5.56,74008.5,-4.01,-41.55,-42.25,0,*54
1484820303.0,47252,5.56,74006.5,-3.99,-41.29,-41.73,0,*5A
1484820304.21,47253,5.5,74004.8,-3.99,-41.29,-41.99,0,*5F
1484820305.45,47254,5.5,74006.3,-3.99,-42.37,-42.83,0,*5C
1484820306.7,47255,5.5,74012.3,-3.99,-41.61,-42.31,0,*54
1484820307.91,47256,5.5,74006.5,-3.99,-41.17,-41.73,0,*53
1484820309.14,47257,5.5,74004.0,-3.99,-41.11,-41.81,0,*59
1484820310.4,47258,5.5,74008.5,-3.97,-41.49,-41.93,0,*56
1484820311.68,47259,5.5,74014.5,-3.97,-40.91,-41.35,0,*5F
1484820312.95,47260,5.56,74014.8,-3.97,-41.17,-41.55,0,*5C
1484820314.18,47261,5.5,74022.5,-3.97,-41.29,-41.73,0,*54
1484820315.39,47262,5.5,74012.0,-3.95,-41.03,-41.49,0,*54
1484820316.6,47263,5.5,74014.0,-3.95,-40.73,-41.29,0,*55
1484820317.84,47264,5.5,74014.5,-3.95,-40.85,-41.29,0,*5B
1484820319.07,47265,5.5,74014.0,-3.93,-41.29,-41.73,0,*54
1484820320.31,47266,5.56,74016.0,-3.93,-41.87,-42.51,0,*50
1484820321.57,47267,5.5,74016.3,-3.93,-41.55,-42.13,0,*58
1484820322.8,47268,5.5,74016.3,-3.91,-41.67,-42.25,0,*51
1484820324.07,47269,5.5,74026.3,-3.93,-41.03,-41.55,0,*54
1484820325.3,47270,5.56,74018.5,-3.93,-41.49,-41.73,0,*56
1484820326.54,47271,5.5,74020.0,-3.91,-41.35,-41.99,0,*5A
1484820327.78,47272,5.5,74018.0,-3.91,-42.51,-42.95,0,*57
1484820329.04,47273,5.5,74016.3,-3.95,-41.55,-42.31,0,*5B
1484820330.26,47274,5.5,74016.3,-3.95,-41.49,-41.87,0,*5F
1484820331.5,47275,5.5,74016.8,-3.93,-42.13,-42.75,0,*5A
1484820332.73,47276,5.5,74018.8,-3.93,-41.73,-42.13,0,*5C
1484820333.99,47277,5.5,74020.0,-3.93,-41.41,-41.93,0,*57
1484820335.25,47278,5.5,74016.5,-3.93,-42.05,-42.63,0,*57
1484820336.54,47279,5.5,74020.8,-3.93,-41.23,-41.67,0,*56
1484820337.78,47280,5.5,74026.8,-3.93,-41.41,-41.87,0,*5A
1484820339.01,47281,5.5,74016.8,-3.93,-41.11,-41.49,0,*5C
1484820340.28,47282,5.5,74012.3,-3.91,-41.23,-41.67,0,*50
1484820341.53,47283,5.5,74012.0,-3.91,-42.05,-42.69,0,*5B
1484820342.75,47284,5.5,74010.0,-3.91,-42.13,-42.75,0,*56
1484820343.99,47285,5.5,74012.3,-3.93,-41.03,-41.49,0,*5B
1484820345.24,47286,5.5,74010.0,-3.91,-40.79,-41.23,0,*5A
1484820346.45,47287,5.5,74008.3,-3.91,-41.49,-41.99,0,*58
1484820347.68,47288,5.5,74012.8,-3.91,-40.97,-41.61,0,*52
1484820348.91,47289,5.5,74018.0,-3.91,-41.41,-42.05,0,*58
1484820350.17,47290,5.5,74010.8,-3.93,-41.73,-42.45,0,*57
1484820351.37,47291,5.5,74018.8,-3.91,-41.49,-41.99,0,*5F
1484820352.64,47292,5.5,74008.3,-3.91,-41.23,-41.67,0,*51
1484820353.88,47293,5.5,74012.8,-3.91,-41.17,-41.67,0,*57
1484820355.12,47294,5.5,74018.5,-3.89,-41.41,-41.87,0,*54
1484820356.41,47295,5.5,74014.5,-3.89,-40.79,-41.23,0,*51
1484820357.61,47296,5.5,74014.5,-3.87,-41.17,-41.73,0,*50
1484820358.82,47297,5.5,74018.0,-3.87,-41.99,-42.51,0,*54
1484820360.11,47298,5.5,74008.8,-3.89,-42.19,-42.57,0,*58
1484820361.37,47299,5.5,74014.8,-3.89,-41.81,-42.25,0,*5E
1484820362.64,47300,5.5,74006.8,-3.89,-41.61,-42.05,0,*53
1484820363.9,47301,5.5,74004.8,-3.89,-41.87,-42.45,0,*5E
1484820365.16,47302,5.5,74010.8,-3.87,-41.35,-41.81,0,*51
1484820366.42,47303,5.5,74010.5,-3.89,-41.87,-42.57,0,*5F
1484820367.66,47304,5.5,74004.3,-3.89,-41.41,-42.25,0,*57
1484820368.94,47305,5.5,74000.3,-3.89,-42.69,-43.29,0,*52
1484820370.2,47306,5.5,74006.5,-3.89,-41.99,-42.57,0,*55
1484820371.47,47307,5.5,74002.8,-3.89,-41.67,-42.25,0,*50
1484820372.73,47308,5.5,74004.3,-3.89,-42.63,-43.09,0,*57
1484820373.99,47309,5.5,74000.8,-3.91,-42.45,-42.83,0,*58
1484820375.23,47310,5.5,73998.5,-3.91,-41.61,-42.19,0,*56
1484820376.44,47311,5.5,73998.0,-3.91,-41.41,-41.87,0,*51
1484820377.67,47312,5.5,74000.5,-3.91,-41.81,-42.25,0,*55
1484820378.9,47313,5.5,74000.3,-3.87,-42.05,-42.37,0,*5F
1484820380.16,47314,5.5,74002.8,-3.89,-41.99,-42.45,0,*55
1484820381.4,47315,5.5,74010.3,-3.89,-41.49,-41.99,0,*5B
1484820382.63,47316,5.5,74002.8,-3.89,-41.41,-41.99,0,*50
1484820383.89,47317,5.5,74002.0,-3.89,-41.17,-41.81,0,*5B
1484820385.16,47318,5.5,74004.8,-3.89,-41.23,-41.87,0,*55
1484820386.45,47319,5.5,74012.5,-3.89,-41.23,-41.81,0,*52
1484820387.71,47320,5.5,74012.8,-3.87,-41.81,-42.31,0,*56
1484820388.97,47321,5.5,74012.5,-3.89,-41.49,-42.05,0,*5A
1484820390.24,47322,5.5,74006.0,-3.89,-41.17,-41.67,0,*55
1484820391.47,47323,5.5,74010.0,-3.89,-41.17,-41.61,0,*52
1484820392.7,47324,5.5,74016.8,-3.87,-40.97,-41.73,0,*51
1484820393.97,47325,5.5,74012.3,-3.89,-41.61,-42.19,0,*59
1484820395.2,47326,5.5,74014.0,-3.87,-41.11,-41.55,0,*58
1484820396.44,47327,5.5,74014.0,-3.87,-41.35,-41.87,0,*50
1484820397.65,47328,5.5,74014.8,-3.83,-40.53,-41.11,0,*55
1484820398.91,47329,5.5,74016.0,-3.83,-40.85,-41.35,0,*59
1484820400.14,47330,5.5,74020.3,-3.83,-41.23,-41.87,0,*55
1484820401.35,47331,5.5,74020.3,-3.83,-41.03,-41.49,0,*54
1484820402.64,47332,5.5,74022.0,-3.81,-41.35,-41.93,0,*57
1484820403.9,47333,5.5,74020.0,-3.81,-41.29,-41.67,0,*50
1484820405.16,47334,5.5,74024.3,-3.81,-41.11,-41.55,0,*5D
1484820406.39,47335,5.5,74016.3,-3.81,-41.49,-42.13,0,*50
1484820407.64,47336,5.5,74018.5,-3.81,-41.29,-41.93,0,*5E
1484820408.93,47337,5.5,74014.5,-3.81,-41.67,-42.31,0,*5E
1484820410.19,47338,5.5,74016.8,-3.81,-41.87,-42.45,0,*5C
1484820411.45,47339,5.5,74012.8,-3.83,-42.57,-43.29,0,*5A
1484820412.68,47340,5.5,74016.3,-3.83,-42.89,-43.55,0,*5C
1484820413.94,47341,5.5,74006.8,-3.81,-42.25,-42.57,0,*5A
1484820415.18,47342,5.5,74014.5,-3.83,-41.67,-42.25,0,*5B
1484820416.41,47343,5.5,74018.0,-3.83,-41.67,-42.25,0,*5A
1484820417.64,47344,5.5,74014.5,-3.83,-41.73,-42.45,0,*5E
1484820418.88,47345,5.5,74018.0,-3.83,-41.35,-41.73,0,*5B
1484820420.13,47346,5.5,74000.3,-3.83,-42.05,-42.57,0,*5D
1484820421.37,47347,5.5,74012.3,-3.83,-41.67,-42.25,0,*5E
1484820422.6,47348,5.5,74006.0,-3.83,-42.31,-42.89,0,*57
1484820423.84,47349,5.5,74002.8,-3.83,-42.31,-42.89,0,*56
1484820425.05,47350,5.5,74000.3,-3.87,-42.51,-43.01,0,*5D
1484820426.28,47351,5.5,74004.3,-3.87,-42.51,-43.21,0,*5E
1484820427.52,47352,5.5,73998.8,-3.89,-42.89,-43.61,0,*52
1484820428.73,47353,5.5,74000.3,-3.87,-42.51,-43.01,0,*5E
1484820429.99,47354,5.5,74006.5,-3.89,-41.81,-42.37,0,*5D
1484820431.27,47355,5.5,74004.0,-3.89,-42.57,-43.09,0,*58
1484820432.56,47356,5.5,74010.8,-3.89,-42.05,-42.57,0,*56
1484820433.8,47357,5.5,74010.5,-3.89,-41.99,-42.63,0,*56
1484820435.04,47358,5.5,74008.8,-3.89,-42.25,-42.89,0,*59
1484820436.3,47359,5.5,74008.8,-3.89,-41.81,-42.37,0,*50
1484820437.57,47360,5.5,74012.8,-3.89,-41.67,-42.25,0,*51
1484820438.83,47361,5.5,74012.0,-3.89,-41.67,-42.25,0,*50
1484820440.07,47362,5.5,74004.0,-3.89,-41.87,-42.37,0,*5E
1484820441.31,47363,5.5,74008.5,-3.89,-41.03,-41.61,0,*53
1484820442.52,47364,5.5,74006.0,-3.87,-41.41,-41.99,0,*5B
1484820443.78,47365,5.5,74010.5,-3.89,-41.99,-42.57,0,*50
1484820445.04,47366,5.5,74004.8,-3.89,-42.13,-42.83,0,*5B
1484820446.31,47367,5.5,74006.3,-3.89,-42.05,-42.63,0,*53
1484820447.57,47368,5.5,74010.0,-3.89,-41.67,-42.25,0,*59
1484820448.84,47369,5.5,74006.8,-3.89,-42.05,-42.63,0,*5D
1484820450.1,47370,5.5,74010.8,-3.89,-41.99,-42.45,0,*57
1484820451.36,47371,5.5,74014.0,-3.89,-41.41,-42.05,0,*57
1484820452.62,47372,5.5,74006.8,-3.89,-41.81,-42.25,0,*5A
1484820453.88,47373,5.5,74012.0,-3.87,-42.19,-42.57,0,*52
1484820455.15,47374,5.5,74012.3,-3.89,-42.25,-42.69,0,*59
1484820456.42,47375,5.5,74018.0,-3.89,-41.61,-42.19,0,*5C
1484820457.68,47376,5.5,74018.3,-3.89,-42.37,-42.83,0,*5C
1484820458.94,47377,5.5,74018.3,-3.89,-41.49,-42.05,0,*59
1484820460.22,47378,5.5,74018.3,-3.89,-41.35,-41.81,0,*52
1484820461.51,47379,5.5,74014.0,-3.89,-41.81,-42.45,0,*57
1484820462.74,47380,5.5,74016.5,-3.87,-42.57,-43.15,0,*53
1484820464.01,47381,5.5,74016.3,-3.89,-42.05,-42.63,0,*5B
1484820465.27,47382,5.5,74020.3,-3.89,-41.23,-41.99,0,*59
1484820466.54,47383,5.5,74018.8,-3.89,-41.35,-41.87,0,*50
1484820467.83,47384,5.5,74024.8,-3.89,-41.35,-41.81,0,*51
1484820469.09,47385,5.5,74020.3,-3.89,-41.67,-42.37,0,*59
1484820470.35,47386,5.5,74028.8,-3.89,-41.81,-42.37,0,*52
1484820471.59,47387,5.5,74028.0,-3.89,-41.41,-41.87,0,*57
1484820472.8,47388,5.5,74020.3,-3.87,-41.17,-41.73,0,*5E
1484820474.03,47389,5.5,74010.3,-3.87,-40.79,-41.17,0,*54
1484820475.26,47390,5.5,74008.3,-3.87,-41.35,-41.61,0,*54
1484820476.5,47391,5.44,74006.8,-3.87,-41.35,-41.99,0,*52
1484820477.73,47392,5.5,74008.0,-3.83,-41.93,-42.51,0,*5E
1484820478.99,47393,5.5,74008.0,-3.83,-41.35,-42.05,0,*52
1484820480.25,47394,5.44,74006.8,-3.83,-41.35,-42.05,0,*55
1484820481.48,47395,5.5,74018.0,-3.83,-42.05,-42.51,0,*55
1484820482.72,47396,5.44,74012.8,-3.83,-42.31,-42.89,0,*54
1484820483.96,47397,5.44,74014.0,-3.83,-41.93,-42.51,0,*5B
1484820485.19,47398,5.44,74012.3,-3.87,-42.37,-42.95,0,*55
1484820486.45,47399,5.5,74020.8,-3.87,-41.35,-41.93,0,*50
1484820487.68,47400,5.5,74014.0,-3.87,-41.41,-41.93,0,*54
1484820488.91,47401,5.44,74016.3,-3.87,-41.55,-41.99,0,*5A
1484820490.11,47402,5.44,74012.8,-3.87,-41.99,-42.37,0,*5E
1484820491.37,47403,5.44,74018.5,-3.87,-40.97,-41.35,0,*51
1484820492.58,47404,5.44,74018.0,-3.87,-41.11,-41.73,0,*5B
1484820493.78,47405,5.44,74016.8,-3.87,-41.17,-41.61,0,*5F
1484820495.01,47406,5.44,74012.8,-3.83,-41.49,-41.93,0,*5E
1484820496.23,47407,5.44,74014.8,-3.83,-41.49,-41.93,0,*5F
1484820497.44,47408,5.44,74018.0,-3.83,-41.29,-41.87,0,*53
1484820498.7,47409,5.44,74022.8,-3.83,-41.55,-42.05,0,*50
1484820499.96,47410,5.5,74018.8,-3.83,-41.23,-41.67,0,*5E
1484820501.22,47411,5.44,74016.3,-3.81,-42.05,-42.51,0,*5C
1484820502.49,47412,5.5,74018.3,-3.81,-41.11,-41.67,0,*5F
1484820503.75,47413,5.44,74010.3,-3.81,-41.87,-42.45,0,*52
1484820504.96,47414,5.44,74010.0,-3.83,-42.25,-42.75,0,*5F
1484820506.23,47415,5.44,74014.8,-3.81,-41.23,-41.73,0,*5C
1484820507.51,47416,5.44,74010.8,-3.81,-42.05,-42.69,0,*50
1484820508.74,47417,5.44,74012.0,-3.83,-42.69,-43.15,0,*53
1484820509.98,47418,5.44,74014.8,-3.83,-42.13,-42.69,0,*5B